Location: Molino di Ancona
(43.6167°N, 13.3667°E)
Time: 10:51:03
(UTC+00:00)

Cosmos 2180 Rocket - Pass Details

Date: 15 December 2019
Orbit: 954 x 1004 km, 82.9° (Epoch: 27 January)

Event Time Altitude Azimuth Distance (km) Brightness Sun altitude
Rises 04:29:04 0° 185° (S) 3,616 7.6 -21.5°
Reaches altitude 10° 04:31:33 10° 185° (S) 2,676 6.9 -21.0°
Maximum altitude 04:37:40 87° 99° (E) 966 4.4 -19.9°
Drops below altitude 10° 04:43:53 10° 9° (N) 2,714 6.8 -18.8°
Sets 04:46:25 0° 9° (N) 3,671 7.5 -18.4°
